Time,TemperatureF,DewpointF,PressureIn,WindDirection,WindDirectionDegrees,WindSpeedMPH,WindSpeedGustMPH,Humidity,HourlyPrecipIn,Conditions,Clouds,dailyrainin,SoftwareType,DateUTC
2013-07-29 00:04:00,61.6,53.0,30.07,North,0,0.0,0.0,72,0.00,,,-99.99,,2013-07-29 05:04:00,
2013-07-29 00:34:00,60.9,53.0,30.07,North,0,0.0,0.0,72,0.00,,,-99.99,,2013-07-29 05:34:00,
2013-07-29 01:04:00,60.5,53.0,30.07,North,0,0.0,0.0,77,0.00,,,-99.99,,2013-07-29 06:04:00,
2013-07-29 01:34:00,60.6,53.0,30.07,North,0,0.0,0.0,77,0.00,,,-99.99,,2013-07-29 06:34:00,
2013-07-29 02:04:00,60.2,53.0,30.07,North,0,0.0,0.0,77,0.00,,,-99.99,,2013-07-29 07:04:00,
2013-07-29 02:34:00,59.8,53.0,30.07,North,0,0.0,0.0,77,0.00,,,-99.99,,2013-07-29 07:34:00,
2013-07-29 03:04:00,59.5,53.0,30.08,North,0,0.0,0.0,87,0.00,,,-99.99,,2013-07-29 08:04:00,
2013-07-29 03:34:00,58.5,53.0,30.08,North,0,0.0,0.0,87,0.00,,,-99.99,,2013-07-29 08:34:00,
2013-07-29 04:04:00,58.4,53.0,30.08,North,0,0.0,0.0,82,0.00,,,-99.99,,2013-07-29 09:04:00,
2013-07-29 04:34:00,57.8,53.0,30.08,North,0,0.0,0.0,82,0.00,,,-99.99,,2013-07-29 09:34:00,
2013-07-29 05:04:00,57.0,53.0,30.09,North,0,0.0,0.0,87,0.00,,,-99.99,,2013-07-29 10:04:00,
2013-07-29 05:34:00,56.9,53.0,30.09,North,0,0.0,0.0,87,0.00,,,-99.99,,2013-07-29 10:34:00,
2013-07-29 06:05:00,56.6,53.0,30.10,North,0,0.0,0.0,87,0.00,,,-99.99,,2013-07-29 11:05:00,
2013-07-29 06:35:00,57.2,53.0,30.10,North,0,0.0,0.0,87,0.00,,,-99.99,,2013-07-29 11:35:00,
2013-07-29 07:05:00,59.1,53.0,30.10,North,0,0.0,0.0,87,0.00,,,-99.99,,2013-07-29 12:05:00,
2013-07-29 07:34:00,66.5,53.0,30.10,North,0,0.0,0.0,87,0.00,,,-99.99,,2013-07-29 12:34:00,
2013-07-29 08:04:00,70.1,55.0,30.12,SSE,160,6.0,0.0,77,0.00,,,-99.99,,2013-07-29 13:04:00,
2013-07-29 08:34:00,68.7,55.0,30.12,SSE,160,6.0,0.0,77,0.00,,,-99.99,,2013-07-29 13:34:00,
2013-07-29 09:04:00,66.9,55.0,30.13,SE,140,4.0,0.0,72,0.00,,,-99.99,,2013-07-29 14:04:00,
2013-07-29 09:35:00,67.9,55.0,30.13,SE,140,4.0,0.0,72,0.00,,,-99.99,,2013-07-29 14:35:00,
2013-07-29 10:05:00,68.3,55.0,30.14,South,170,5.0,0.0,64,0.00,,,-99.99,,2013-07-29 15:05:00,
2013-07-29 11:35:00,73.2,53.0,30.14,SSE,160,8.0,0.0,56,0.00,,,-99.99,,2013-07-29 16:35:00,
2013-07-29 12:06:00,72.4,53.0,30.13,SE,140,6.0,0.0,53,0.00,,,-99.99,,2013-07-29 17:06:00,
2013-07-29 12:37:00,75.2,53.0,30.13,SE,140,6.0,0.0,53,0.00,,,-99.99,,2013-07-29 17:37:00,
2013-07-29 13:35:00,77.2,53.0,30.12,South,190,6.0,0.0,47,0.00,,,-99.99,,2013-07-29 18:35:00,
2013-07-29 14:34:00,77.8,51.0,30.10,North,6,6.0,0.0,44,0.00,,,-99.99,,2013-07-29 19:34:00,
2013-07-29 15:06:00,77.9,53.0,30.09,North,5,5.0,0.0,47,0.00,,,-99.99,,2013-07-29 20:06:00,
2013-07-29 15:35:00,79.1,53.0,30.09,North,5,5.0,0.0,47,0.00,,,-99.99,,2013-07-29 20:35:00,
2013-07-29 16:35:00,76.1,51.0,30.09,SE,140,8.0,0.0,44,0.00,,,-99.99,,2013-07-29 21:35:00,
2013-07-29 18:35:00,82.8,51.0,30.09,SSE,150,10.0,17.0,39,0.00,,,-99.99,,2013-07-29 23:35:00,
2013-07-29 19:06:00,75.3,51.0,30.09,South,170,9.0,0.0,44,0.00,,,-99.99,,2013-07-30 00:06:00,
2013-07-29 19:35:00,74.9,51.0,30.09,South,170,9.0,0.0,44,0.00,,,-99.99,,2013-07-30 00:35:00,
2013-07-29 20:06:00,73.2,51.0,30.08,South,170,6.0,0.0,44,0.00,,,-99.99,,2013-07-30 01:06:00,
2013-07-29 20:35:00,72.4,51.0,30.08,South,170,6.0,0.0,44,0.00,,,-99.99,,2013-07-30 01:35:00,
2013-07-29 21:05:00,71.6,53.0,30.08,North,4,4.0,0.0,53,0.00,,,-99.99,,2013-07-30 02:05:00,
2013-07-29 21:35:00,71.0,53.0,30.08,North,4,4.0,0.0,53,0.00,,,-99.99,,2013-07-30 02:35:00,
2013-07-29 22:36:00,70.5,53.0,30.09,SE,140,6.0,0.0,53,0.00,,,-99.99,,2013-07-30 03:36:00,
2013-07-29 23:04:00,70.5,55.0,30.09,SE,140,6.0,0.0,56,0.00,,,-99.99,,2013-07-30 04:04:00,
2013-07-29 23:34:00,69.8,55.0,30.09,SE,140,6.0,0.0,56,0.00,,,-99.99,,2013-07-30 04:34:00,